Flag for U.S.A. Weather past 2 weeks in Binghamton, New York, U.S.A.

Now
13 °F

Passing clouds.


Feels Like: 3 °F
Forecast: 1 / 31 °F
Wind: 7 mph from South

Location: Binghamton Regional Airport

Current Time: Jan 29, 2015 at 10:26:30 AM

Latest Report: Jan 29, 2015 at 9:53 AM


Visibility: 10 mi

Pressure: 30.21 "Hg

Humidity: 74%

Dew point: 6 °F

Location of BinghamtonLocation

Historic Weather in Binghamton — Graph

°F

Binghamton temperature yesterday

Maximum temperature yesterday: 22 °F (at 2:53 PM)
Minimum temperature yesterday: 7 °F (at 6:53 AM)
Average temperature yesterday: 13 °F

Past Weeks' High & Low Weather Summary

 TemperatureHumidityPressure
High38 °F (Jan 18, 12:53 PM)100% (Jan 18, 9:02 PM)30.43 "Hg (Jan 18, 9:02 PM)
Low2 °F (Jan 17, 8:53 AM)43% (Jan 28, 1:53 PM)29.39 "Hg (Jan 24, 2:53 PM)
Average19 °F77%29.99 "Hg
* Reported Jan 14 8:53 AM — Jan 29 8:53 AM, Binghamton, Weather by CustomWeather, © 2014

Note: Actual official high and low records may vary slightly from our data, if they occured in-between our weather recording intervals... More about our weather records

Advertising

Binghamton weather history for previous 24 hours

 ConditionsComfort  
Time TempWeatherWind HumidityBarometerVisibility
8:53 AM
Jan 29
8 °FSunny.7 mph83%30.23 "Hg10 mi
7:53 AM3 °FSunny.8 mph95%30.25 "Hg10 mi
6:53 AM5 °FClear.No wind87%30.28 "Hg10 mi
5:53 AM10 °FClear.3 mph80%30.28 "Hg10 mi
4:53 AM9 °FClear.5 mph84%30.30 "Hg10 mi
3:53 AM7 °FClear.5 mph87%30.29 "Hg10 mi
2:53 AM8 °FClear.5 mph83%30.31 "Hg10 mi
1:53 AM11 °FClear.No wind77%30.30 "Hg10 mi
12:53 AM13 °FClear.3 mph70%30.30 "Hg10 mi
11:53 PM
Jan 28
11 °FClear.No wind77%30.32 "Hg10 mi
10:53 PM13 °FClear.6 mph70%30.32 "Hg10 mi
9:53 PM14 °FClear.6 mph67%30.32 "Hg10 mi
8:53 PM13 °FClear.7 mph67%30.32 "Hg10 mi
7:53 PM15 °FClear.6 mph64%30.31 "Hg10 mi
6:53 PM16 °FClear.7 mph62%30.30 "Hg10 mi
5:53 PM17 °FClear.10 mph51%30.28 "Hg10 mi
4:53 PM19 °FSunny.13 mph47%30.25 "Hg10 mi
3:53 PM21 °FSunny.16 mph43%30.23 "Hg10 mi
2:53 PM22 °FSunny.13 mph44%30.20 "Hg10 mi
1:53 PM21 °FSunny.13 mph43%30.19 "Hg10 mi
12:53 PM19 °FSunny.15 mph45%30.18 "Hg10 mi
11:53 AM17 °FSunny.18 mph49%30.19 "Hg10 mi
10:53 AM15 °FSunny.16 mph58%30.19 "Hg10 mi
Weather by CustomWeather, © 2014

See weather overviewHow to use our weather pages